Location: Newark
(33.6333°S, 78.8500°W)
Time: 23:11:30
(UTC+00:00)

Tiros 1 - Pass Details

Date: 26 October 2019
Orbit: 630 x 664 km, 48.4° (Epoch: 19 November)

Event Time Altitude Azimuth Distance (km) Brightness Sun altitude
Rises 17:55:05 0° 258° (WSW) 2,960 10.7 65.4°
Reaches altitude 10° 17:58:10 10° 238° (WSW) 2,047 9.9 65.0°
Maximum altitude 18:01:17 17° 196° (SSW) 1,614 9.3 64.6°
Drops below altitude 10° 18:04:25 10° 154° (SSE) 2,040 9.6 64.2°
Sets 18:07:28 0° 134° (SE) 2,946 10.3 63.8°
